Flag for Italy Weather past 2 weeks in Bologna, Italy

Now
68 °F

Clear.


Feels Like: 68 °F
Forecast: 64 / 72 °F
Wind: 3 mph from Southeast

Location: Bologna / Borgo Panigale

Current Time: Sep 30, 2014 at 10:27:57 PM

Latest Report: Sep 30, 2014 at 9:50 PM


Visibility: 10 mi

Pressure: 30.24 "Hg

Humidity: 73%

Dew point: 59 °F

Location of BolognaLocation

Historic Weather in Bologna — Graph

°F

Bologna temperature yesterday

Maximum temperature yesterday: 77 °F (at 2:20 PM)
Minimum temperature yesterday: 57 °F (at 3:50 AM)
Average temperature yesterday: 66 °F

Past Weeks' High & Low Weather Summary

 TemperatureHumidityPressure
High81 °F (Sep 22, 4:20 PM)100% (Sep 16, 2:20 AM)30.39 "Hg (Sep 16, 2:20 AM)
Low46 °F (Sep 24, 6:50 AM)35% (Sep 23, 6:20 PM)29.71 "Hg (Sep 22, 7:50 PM)
Average66 °F76%30.09 "Hg
* Reported Sep 15 9:20 PM — Sep 30 9:20 PM, Bologna, Weather by CustomWeather, © 2014

Note: Actual official high and low records may vary slightly from our data, if they occured in-between our weather recording intervals... More about our weather records

Advertising

Bologna weather history for previous 24 hours

 ConditionsComfort  
Time TempWeatherWind HumidityBarometerVisibility
9:20 PM
Sep 30
66 °FClear.3 mph78%30.27 "Hg10 mi
8:50 PM66 °FClear.5 mph78%30.27 "Hg10 mi
8:20 PM68 °FPassing clouds.7 mph73%30.24 "HgN/A
7:50 PM70 °FScattered clouds.7 mph73%30.24 "HgN/A
7:20 PM72 °FScattered clouds.8 mph65%30.24 "HgN/A
6:50 PM73 °FSunny.2 mph61%30.24 "Hg10 mi
6:20 PM75 °FSunny.2 mph54%30.27 "Hg10 mi
5:50 PM77 °FSunny.No wind47%30.24 "Hg10 mi
5:20 PM77 °FPassing clouds.5 mph51%30.24 "HgN/A
4:50 PM77 °FPassing clouds.3 mph51%30.24 "HgN/A
4:20 PM79 °FPassing clouds.3 mph48%30.27 "HgN/A
3:50 PM77 °FPassing clouds.3 mph51%30.27 "HgN/A
3:20 PM77 °FPassing clouds.5 mph51%30.27 "HgN/A
2:50 PM77 °FSunny.3 mph54%30.27 "Hg10 mi
2:20 PM77 °FSunny.2 mph51%30.30 "Hg10 mi
1:50 PM75 °FPassing clouds.5 mph57%30.30 "HgN/A
1:20 PM75 °FSunny.3 mph54%30.30 "Hg10 mi
12:50 PM73 °FPassing clouds.3 mph61%30.30 "HgN/A
12:20 PM75 °FSunny.2 mph57%30.30 "Hg10 mi
11:50 AM72 °FSunny.3 mph61%30.30 "Hg10 mi
11:20 AM70 °FSunny.3 mph64%30.33 "Hg10 mi
10:50 AM70 °FSunny.1 mph64%30.33 "Hg10 mi
10:20 AM68 °FSunny.2 mph73%30.33 "Hg10 mi
9:50 AM64 °FSunny.3 mph78%30.33 "Hg10 mi
9:20 AM63 °FSunny.5 mph77%30.30 "Hg10 mi
8:50 AM63 °FSunny.6 mph77%30.30 "Hg10 mi
8:20 AM61 °FPassing clouds.3 mph83%30.30 "HgN/A
7:50 AM59 °FClear.2 mph82%30.30 "Hg10 mi
7:20 AM57 °FPassing clouds.3 mph88%30.30 "HgN/A
6:50 AM59 °FClear.7 mph82%30.27 "Hg10 mi
6:20 AM59 °FClear.7 mph82%30.30 "Hg10 mi
5:50 AM59 °FClear.8 mph82%30.30 "Hg10 mi
5:20 AM59 °FClear.8 mph82%30.30 "Hg10 mi
4:50 AM59 °FClear.9 mph82%30.30 "Hg10 mi
4:20 AM59 °FClear.7 mph82%30.30 "Hg10 mi
3:50 AM59 °FClear.8 mph82%30.30 "Hg10 mi
3:20 AM59 °FClear.7 mph82%30.30 "Hg10 mi
2:50 AM59 °FClear.7 mph82%30.30 "Hg10 mi
2:20 AM59 °FClear.6 mph82%30.30 "Hg10 mi
1:50 AM59 °FClear.8 mph82%30.30 "Hg10 mi
1:20 AM61 °FClear.6 mph77%30.30 "Hg10 mi
12:50 AM61 °FClear.6 mph83%30.30 "Hg10 mi
12:20 AM61 °FClear.7 mph83%30.30 "Hg10 mi
11:50 PM
Sep 29
63 °FClear.6 mph77%30.30 "Hg10 mi
11:20 PM63 °FPassing clouds.5 mph77%30.33 "HgN/A
10:50 PM61 °FClear.2 mph83%30.33 "Hg10 mi
10:20 PM63 °FClear.2 mph83%30.33 "Hg10 mi
Weather by CustomWeather, © 2014

See weather overviewHow to use our weather pages